Regional Weather Roundup
Issued by NWS Green Bay, WI

Home | Current Version | Previous Version | Graphics & Text | Print | Product List | Glossary Off
Versions: 1 2 3 4 5 6 7 8 9 10 11 12 13 14 15 16 17 18 19 20 21 22 23 24 25 26 27 28 29 30 31 32 33 34 35 36 37 38 39 40 41 42 43 44 45 46 47 48 49 50

000
ASUS43 KGRB 291159
RWRGRB

NORTH-CENTRAL AND NORTHEAST WISCONSIN REGIONAL WEATHER ROUNDUP
NATIONAL WEATHER SERVICE GREEN BAY WI
700 AM CDT FRI AUG 29 2014

WIZ005-009-010>012-018-019-291300-
NORTH CENTRAL WISCONSIN

CITY           SKY/WX    TMP DP  RH WIND       PRES   REMARKS
IRONWOOD       NOT AVBL
MANITOWISH WTR NOT AVBL
ARBOR VITAE    NOT AVBL
EAGLE RIVER    NOT AVBL
LAND O LAKES   NOT AVBL
RHINELANDER    LGT RAIN  57  56  96 SE7       29.97S
PHILLIPS       NOT AVBL
ANTIGO         NOT AVBL
TOMAHAWK       NOT AVBL
MERRILL        NOT AVBL
$$

WIZ013-073-291300-
NORTHEAST WISCONSIN

CITY           SKY/WX    TMP DP  RH WIND       PRES   REMARKS
IRON MOUNTAIN  CLOUDY    58  57  97 SE5       29.97F FOG
MARINETTE      CLOUDY    61  57  88 SE9       29.98S
$$

WIZ017-030-035>037-045-291300-
CENTRAL WISCONSIN

CITY           SKY/WX    TMP DP  RH WIND       PRES   REMARKS
MEDFORD        NOT AVBL
WAUSAU         CLOUDY    59  58  96 SE7       29.94S FOG
MOSINEE        CLOUDY    59  59 100 SE6       29.96F FOG
MARSHFIELD     CLOUDY    61  59  93 SE7       29.92F FOG
WISC RAPIDS    CLOUDY    62  60  93 E3        29.95S
STEVENS POINT  NOT AVBL
WAUPACA        NOT AVBL
SHAWANO        NOT AVBL
CLINTONVILLE   NOT AVBL
$$

WIZ038-039-048-051-291300-
FOX VALLEY

CITY           SKY/WX    TMP DP  RH WIND       PRES   REMARKS
NWS GREEN BAY  CLOUDY    63  62  97 E3        29.96F
APPLETON       CLOUDY    63  63 100 VRB5      29.96S
OSHKOSH        CLOUDY    65  63  93 CALM      29.95S
FOND DU LAC    CLOUDY    67  63  87 S7        29.96R
$$

WIZ022-050-052-291300-
EAST CENTRAL WISCONSIN

CITY           SKY/WX    TMP DP  RH WIND       PRES   REMARKS
STURGEON BAY   CLOUDY    61  57  88 E9        29.99R
MANITOWOC      CLOUDY    66  64  94 S13       29.97S
SHEBOYGAN      CLOUDY    68  65  90 S9        29.96S
$$

LMZ563-521-522-541>543-291300-
LAKESHORE

STATION/POSITION TIME  TEMP    WIND        PRES    VSBY  WAVE
                       AIR SEA DIR/SP/G                  HT/PER
                 (UTC) (F)     (DEG/KT/KT) (MB)    (MI)  (FT/S)
SHEBOYGAN LKSHOR 1100   67 69  160/ 17/ 19 1014.6F
KEWAUNEE LKSHORE 1100   64     150/ 11/ 13 1014.2F
NORTHPORT PIER   1100   61     150/ 12/ 16 1015.9F
N MID LAKE BUOY  1100   63 65  180/ 16/ 19 1016.4F         1/ 3
S GREEN BAY BUOY 1100   63     VRB 12/ 16  1016.0S
SISTER BAY LKSHO 1100   59     100/  2/  5   N/A
CHAMBERS ISLAND  1100   61     120/  6/ 10 1015.9F
MENOMINEE LKSHOR 1100   62     120/ 10/ 11 1016.0F
$$



USA.gov is the U.S. government's official web portal to all federal, state and local government web resources and services.